Tracking 25195 objects as of 20-Jan-2022
HD Live streaming from Space Station
objects crossing your sky now

STARLINK-1272

Track STARLINK-1272 now!
10-day predictions
STARLINK-1272 is classified as:


NORAD ID: 45386
Int'l Code: 2020-019AC
Perigee: 553.6 km
Apogee: 555.1 km
Inclination: 53.1 °
Period: 95.6 minutes
Semi major axis: 6925 km
RCS: Unknown
Launch date: March 18, 2020
Source: United States (US)
Launch site: AIR FORCE EASTERN TEST RANGE (AFETR)
aabbcc
Your satellite tracking list
Your tracking list is empty




NASA's NSSDC Master Catalog

Two Line Element Set (TLE):
1 45386U 20019AC  22019.68618851  .00004860  00000-0  34495-3 0  9991
2 45386  53.0550  85.2962 0001142  87.4972 272.6148 15.06399503102423
Source of the keplerian elements: AFSPC